Location: Unspecified
(35.7250°N, 0.0000°E)
Time: 10:34:36
(UTC+00:00)

SR - Pass Details

Date: 24 June 2019
Orbit: 578 x 878 km, 66.7° (Epoch: 16 August)

Event Time Altitude Azimuth Distance (km) Brightness Sun altitude
Exits shadow 01:32:44 10° 103° (ESE) 1,858 ? -27.1°
Drops below altitude 10° 01:33:23 10° 94° (E) 1,888 ? -27.1°
Sets 01:37:32 0° 54° (NE) 2,806 ? -26.7°
